Location: Düngen
(52.0952°N, 10.0219°E)
Time: 15:09:25
(UTC+00:00)

USA 281 - Pass Details

Date: 11 March 2026
Orbit: 1079 x 1080 km, 106.0° (Epoch: 5 January)

Event Time Altitude Azimuth Distance (km) Brightness Sun altitude
Exits shadow 22:18:09 38° 12° (NNE) 1,592 4.3 -39.1°
Drops below altitude 10° 22:22:38 10° 339° (NNW) 2,932 6.2 -39.4°
Sets 22:25:15 0° 334° (NNW) 3,892 7.0 -39.5°
